BEIDOU-3 M10 (C24)

Last updated on Aug. 8, 2020, 5:33 a.m. UTC

1 43582U 18062B   20220.35193383  .00000011  00000-0  00000-0 0  9992
2 43582  54.5435 255.3752 0004313 316.9844 130.4523  1.86232135 13783
UTC
Height (km)
Latitude
Longitude
Inclination
Orbital Period
UTC large
Height (km)
Speed (km/s)
/
Latitude / Longitude
Inclination (degrees)
Orbital Period (minutes)
Azimuth
Elevation
Range (km)
Doppler Factor
iOS Compass Heading
iOS Angle

Next 30 passes for location: Hong Kong

Rise time Rise Azimuth (degrees) Set time Set Azimuth (degrees) Duration Max altitude (degrees)

No matching passes for this satellites